| time (UTC) | temp F | wind direction | speed MPH | gust MPH | rain 1hr in | rain 24hr in | rain mn in | humidity % | barometer mb |
| 20260507003037 | 71 | 22 | 9.0 | 15.0 | 0.00 | 0.00 | 0.00 | 58 | 1015.6 |
| 20260507001535 | 72 | 360 | 9.0 | 14.0 | 0.00 | 0.00 | 0.00 | 57 | 1015.5 |
| 20260507000035 | 73 | 38 | 7.0 | 14.0 | 0.00 | 0.00 | 0.00 | 58 | 1015.4 |
| 20260506234537 | 74 | 23 | 6.0 | 13.0 | 0.00 | 0.00 | 0.00 | 57 | 1015.5 |
| 20260506233033 | 74 | 333 | 6.0 | 12.0 | 0.00 | 0.00 | 0.00 | 55 | 1015.6 |
| 20260506231544 | 75 | 14 | 8.0 | 14.0 | 0.00 | 0.00 | 0.00 | 54 | 1015.7 |
| 20260506230035 | 75 | 9 | 7.0 | 12.0 | 0.00 | 0.00 | 0.00 | 53 | 1016.0 |
| 20260506224529 | 76 | 101 | 5.0 | 14.0 | 0.00 | 0.00 | 0.00 | 55 | 1016.0 |
| 20260506223042 | 76 | 99 | 7.0 | 12.0 | 0.00 | 0.00 | 0.00 | 51 | 1016.1 |
| 20260506221524 | 77 | 77 | 6.0 | 15.0 | 0.00 | 0.00 | 0.00 | 50 | 1016.3 |
| 20260506220025 | 77 | 13 | 5.0 | 12.0 | 0.00 | 0.00 | 0.00 | 51 | 1016.4 |
| 20260506214520 | 77 | 36 | 3.0 | 8.0 | 0.00 | 0.00 | 0.00 | 55 | 1016.5 |
| 20260506213017 | 76 | 336 | 4.0 | 11.0 | 0.00 | 0.00 | 0.00 | 51 | 1016.8 |
| 20260506211517 | 76 | 14 | 3.0 | 9.0 | 0.00 | 0.00 | 0.00 | 49 | 1017.0 |
| 20260506210016 | 75 | 43 | 5.0 | 11.0 | 0.00 | 0.00 | 0.00 | 56 | 1017.1 |
| 20260506204513 | 74 | 36 | 5.0 | 12.0 | 0.00 | 0.00 | 0.00 | 55 | 1017.2 |
| 20260506203021 | 73 | 87 | 4.0 | 10.0 | 0.00 | 0.00 | 0.00 | 56 | 1017.3 |
| 20260506201525 | 74 | 24 | 7.0 | 12.0 | 0.00 | 0.00 | 0.00 | 54 | 1017.5 |
| 20260506200009 | 72 | 298 | 1.0 | 9.0 | 0.00 | 0.00 | 0.00 | 59 | 1017.7 |
| 20260506194506 | 72 | 309 | 0.0 | 8.0 | 0.00 | 0.00 | 0.00 | 56 | 1017.9 |
| 20260506193004 | 72 | 331 | 4.0 | 9.0 | 0.00 | 0.00 | 0.00 | 60 | 1017.9 |
| 20260506191501 | 72 | 347 | 2.0 | 8.0 | 0.00 | 0.00 | 0.00 | 63 | 1018.3 |
| 20260506190100 | 70 | 333 | 1.0 | 5.0 | 0.00 | 0.00 | 0.00 | 59 | 1018.3 |
| 20260506184608 | 71 | 315 | 3.0 | 9.0 | 0.00 | 0.00 | 0.00 | 61 | 1018.4 |
| 20260506183102 | 69 | 57 | 5.0 | 10.0 | 0.00 | 0.00 | 0.00 | 63 | 1018.5 |
| 20260506181553 | 68 | 51 | 3.0 | 11.0 | 0.00 | 0.00 | 0.00 | 64 | 1018.5 |
| 20260506180053 | 68 | 225 | 2.0 | 6.0 | 0.00 | 0.00 | 0.00 | 67 | 1018.5 |
| 20260506174548 | 64 | 10 | 3.0 | 6.0 | 0.00 | 0.00 | 0.00 | 71 | 1018.4 |
| 20260506173051 | 65 | 246 | 2.0 | 7.0 | 0.00 | 0.00 | 0.00 | 69 | 1018.6 |
| 20260506171544 | 64 | 11 | 0.0 | 9.0 | 0.00 | 0.00 | 0.00 | 73 | 1018.6 |
| 20260506170101 | 63 | 336 | 4.0 | 7.0 | 0.00 | 0.00 | 0.00 | 71 | 1018.8 |
| 20260506164538 | 62 | 313 | 3.0 | 6.0 | 0.00 | 0.00 | 0.00 | 75 | 1018.7 |
| 20260506163034 | 61 | 274 | 0.0 | 4.0 | 0.00 | 0.00 | 0.00 | 76 | 1018.8 |
| 20260506161534 | 60 | 312 | 1.0 | 4.0 | 0.00 | 0.00 | 0.00 | 77 | 1018.7 |
| 20260506160030 | 61 | 259 | 1.0 | 4.0 | 0.00 | 0.00 | 0.00 | 77 | 1018.7 |
| 20260506154531 | 60 | 323 | 1.0 | 5.0 | 0.00 | 0.00 | 0.00 | 79 | 1018.8 |
| 20260506153023 | 59 | 307 | 1.0 | 5.0 | 0.00 | 0.00 | 0.00 | 80 | 1018.8 |
| 20260506151520 | 59 | 314 | 0.0 | 4.0 | 0.00 | 0.00 | 0.00 | 80 | 1018.8 |
| 20260506150016 | 58 | 296 | 0.0 | 4.0 | 0.00 | 0.00 | 0.00 | 82 | 1018.7 |
| 20260506144513 | 58 | 300 | 0.0 | 2.0 | 0.00 | 0.00 | 0.00 | 82 | 1018.9 |
| 20260506143020 | 57 | 296 | 1.0 | 5.0 | 0.00 | 0.00 | 0.00 | 82 | 1018.8 |
| 20260506141509 | 57 | 286 | 1.0 | 5.0 | 0.00 | 0.00 | 0.00 | 82 | 1018.7 |
| 20260506140005 | 57 | 321 | 2.0 | 5.0 | 0.00 | 0.00 | 0.00 | 82 | 1018.6 |
| 20260506134501 | 57 | 304 | 1.0 | 4.0 | 0.00 | 0.00 | 0.00 | 82 | 1018.4 |
| 20260506133103 | 57 | 310 | 0.0 | 3.0 | 0.00 | 0.00 | 0.00 | 83 | 1018.2 |
| 20260506131558 | 57 | 325 | 1.0 | 4.0 | 0.00 | 0.00 | 0.00 | 83 | 1017.9 |
| 20260506130100 | 56 | 308 | 0.0 | 3.0 | 0.00 | 0.00 | 0.00 | 83 | 1017.9 |
| 20260506124554 | 57 | 322 | 0.0 | 0.0 | 0.00 | 0.00 | 0.00 | 83 | 1017.8 |
| 20260506123052 | 57 | 337 | 0.0 | 2.0 | 0.00 | 0.00 | 0.00 | 83 | 1017.7 |
| 20260506121553 | 57 | 343 | 0.0 | 0.0 | 0.00 | 0.00 | 0.00 | 82 | 1017.8 |
| 20260506120049 | 57 | 9 | 0.0 | 3.0 | 0.00 | 0.00 | 0.00 | 82 | 1017.6 |
| 20260506114550 | 57 | 319 | 0.0 | 3.0 | 0.00 | 0.00 | 0.00 | 81 | 1017.5 |
| 20260506113047 | 57 | 291 | 0.0 | 3.0 | 0.00 | 0.00 | 0.00 | 80 | 1017.4 |
| 20260506111545 | 57 | 315 | 0.0 | 3.0 | 0.00 | 0.00 | 0.00 | 81 | 1017.3 |
| 20260506110045 | 57 | 323 | 0.0 | 0.0 | 0.00 | 0.00 | 0.00 | 82 | 1017.2 |
| 20260506104543 | 58 | 311 | 0.0 | 4.0 | 0.00 | 0.00 | 0.00 | 81 | 1017.0 |
| 20260506103048 | 58 | 317 | 0.0 | 3.0 | 0.00 | 0.00 | 0.00 | 81 | 1017.0 |
| 20260506101542 | 58 | 306 | 1.0 | 4.0 | 0.00 | 0.00 | 0.00 | 81 | 1017.0 |
| 20260506100041 | 58 | 300 | 0.0 | 2.0 | 0.00 | 0.00 | 0.00 | 81 | 1017.1 |
| 20260506094540 | 58 | 306 | 1.0 | 3.0 | 0.00 | 0.00 | 0.00 | 81 | 1017.1 |
| 20260506093038 | 58 | 315 | 0.0 | 2.0 | 0.00 | 0.00 | 0.00 | 81 | 1017.1 |
| 20260506091538 | 58 | 321 | 0.0 | 3.0 | 0.00 | 0.00 | 0.00 | 81 | 1017.3 |
| 20260506090046 | 58 | 341 | 0.0 | 4.0 | 0.00 | 0.00 | 0.00 | 81 | 1017.2 |
| 20260506084543 | 58 | 321 | 1.0 | 5.0 | 0.00 | 0.00 | 0.00 | 81 | 1017.2 |
| 20260506083035 | 58 | 28 | 1.0 | 5.0 | 0.00 | 0.00 | 0.00 | 81 | 1017.2 |
| 20260506081538 | 58 | 337 | 2.0 | 6.0 | 0.00 | 0.00 | 0.00 | 80 | 1017.1 |
| 20260506073028 | 58 | 46 | 1.0 | 4.0 | 0.00 | 0.00 | 0.00 | 80 | 1016.8 |
| 20260506071625 | 58 | 30 | 0.0 | 5.0 | 0.00 | 0.00 | 0.00 | 80 | 1016.7 |
| 20260506061541 | 59 | 342 | 3.0 | 6.0 | 0.00 | 0.00 | 0.00 | 80 | 1016.4 |
| 20260506044520 | 60 | 350 | 2.0 | 8.0 | 0.00 | 0.00 | 0.00 | 74 | 1015.7 |
| 20260506043024 | 60 | 338 | 0.0 | 3.0 | 0.00 | 0.00 | 0.00 | 72 | 1015.6 |
| 20260506041511 | 60 | 296 | 1.0 | 3.0 | 0.00 | 0.00 | 0.00 | 73 | 1015.3 |
| 20260506040009 | 60 | 355 | 0.0 | 3.0 | 0.00 | 0.00 | 0.00 | 73 | 1015.2 |
| 20260506034508 | 60 | 317 | 2.0 | 4.0 | 0.00 | 0.00 | 0.00 | 73 | 1015.0 |
| 20260506033006 | 60 | 324 | 2.0 | 4.0 | 0.00 | 0.00 | 0.00 | 73 | 1014.8 |
| 20260506031505 | 60 | 360 | 1.0 | 4.0 | 0.00 | 0.00 | 0.00 | 75 | 1014.6 |
| 20260506030005 | 60 | 351 | 1.0 | 5.0 | 0.00 | 0.00 | 0.00 | 73 | 1014.4 |
| 20260506024512 | 60 | 15 | 1.0 | 4.0 | 0.00 | 0.00 | 0.00 | 73 | 1014.3 |
| 20260506023004 | 60 | 329 | 2.0 | 5.0 | 0.00 | 0.00 | 0.00 | 72 | 1014.1 |
| 20260506021503 | 60 | 330 | 2.0 | 4.0 | 0.00 | 0.00 | 0.00 | 73 | 1014.0 |
| 20260506020005 | 61 | 12 | 1.0 | 6.0 | 0.00 | 0.00 | 0.00 | 72 | 1014.0 |
| 20260506014501 | 61 | 326 | 3.0 | 9.0 | 0.00 | 0.00 | 0.00 | 72 | 1014.1 |
| 20260506013001 | 61 | 340 | 3.0 | 8.0 | 0.00 | 0.00 | 0.00 | 71 | 1014.1 |
| 20260506011608 | 62 | 313 | 1.0 | 4.0 | 0.00 | 0.00 | 0.00 | 71 | 1014.0 |
| 20260506010100 | 62 | 294 | 0.0 | 3.0 | 0.00 | 0.00 | 0.00 | 71 | 1013.9 |
| 20260506004603 | 61 | 93 | 2.0 | 5.0 | 0.00 | 0.00 | 0.00 | 73 | 1013.9 |